Year,Month,Day,Hour,Minute,Value (Times are PST for temperature in C)
2012,08,10,00,00,15.80
2012,08,10,00,01,15.80
2012,08,10,00,02,15.80
2012,08,10,00,03,15.80
2012,08,10,00,04,15.80
2012,08,10,00,05,15.80
2012,08,10,00,06,15.70
2012,08,10,00,07,15.70
2012,08,10,00,08,15.70
2012,08,10,00,09,15.70
2012,08,10,00,10,15.70
2012,08,10,00,11,15.70
2012,08,10,00,12,15.70
2012,08,10,00,13,15.70
2012,08,10,00,14,15.70
2012,08,10,00,15,15.60
2012,08,10,00,16,15.60
2012,08,10,00,17,15.60
2012,08,10,00,18,15.60
2012,08,10,00,19,15.60
2012,08,10,00,20,15.50
2012,08,10,00,21,15.50
2012,08,10,00,22,15.40
2012,08,10,00,23,15.40
2012,08,10,00,24,15.40
2012,08,10,00,25,15.40
2012,08,10,00,26,15.30
2012,08,10,00,27,15.40
2012,08,10,00,28,15.40
2012,08,10,00,29,15.40
2012,08,10,00,30,15.40
2012,08,10,00,31,15.40
2012,08,10,00,32,15.40
2012,08,10,00,33,15.40
2012,08,10,00,34,15.30
2012,08,10,00,35,15.30
2012,08,10,00,36,15.30
2012,08,10,00,37,15.20
2012,08,10,00,38,15.20
2012,08,10,00,39,15.20
2012,08,10,00,40,15.20
2012,08,10,00,41,15.20
2012,08,10,00,42,15.20
2012,08,10,00,43,15.10
2012,08,10,00,44,15.10
2012,08,10,00,45,15.00
2012,08,10,00,46,15.00
2012,08,10,00,47,15.00
2012,08,10,00,48,15.00
2012,08,10,00,49,15.00
2012,08,10,00,50,15.00
2012,08,10,00,51,15.00
2012,08,10,00,52,15.00
2012,08,10,00,53,15.00
2012,08,10,00,54,15.00
2012,08,10,00,55,15.00
2012,08,10,00,56,14.90
2012,08,10,00,57,14.80
2012,08,10,00,58,14.80
2012,08,10,00,59,14.80
2012,08,10,01,00,14.70
2012,08,10,01,01,14.70
2012,08,10,01,02,14.60
2012,08,10,01,03,14.60
2012,08,10,01,04,14.60
2012,08,10,01,05,14.50
2012,08,10,01,06,14.50
2012,08,10,01,07,14.40
2012,08,10,01,08,14.40
2012,08,10,01,09,14.40
2012,08,10,01,10,14.30
2012,08,10,01,11,14.30
2012,08,10,01,12,14.30
2012,08,10,01,13,14.30
2012,08,10,01,14,14.20
2012,08,10,01,15,14.20
2012,08,10,01,16,14.20
2012,08,10,01,17,14.20
2012,08,10,01,18,14.10
2012,08,10,01,19,14.10
2012,08,10,01,20,14.10
2012,08,10,01,21,14.10
2012,08,10,01,22,14.10
2012,08,10,01,23,14.10
2012,08,10,01,24,14.10
2012,08,10,01,25,14.00
2012,08,10,01,26,14.00
2012,08,10,01,27,14.00
2012,08,10,01,28,14.00
2012,08,10,01,29,14.00
2012,08,10,01,30,13.90
2012,08,10,01,31,13.90
2012,08,10,01,32,13.90
2012,08,10,01,33,13.90
2012,08,10,01,34,13.80
2012,08,10,01,35,13.80
2012,08,10,01,36,13.80
2012,08,10,01,37,13.80
2012,08,10,01,38,13.80
2012,08,10,01,39,13.70
2012,08,10,01,40,13.70
2012,08,10,01,41,13.70
2012,08,10,01,42,13.70
2012,08,10,01,43,13.80
2012,08,10,01,44,13.80
2012,08,10,01,45,13.90
2012,08,10,01,46,13.90
2012,08,10,01,47,13.90
2012,08,10,01,48,13.90
2012,08,10,01,49,13.90
2012,08,10,01,50,13.90
2012,08,10,01,51,13.90
2012,08,10,01,52,14.00
2012,08,10,01,53,13.90
2012,08,10,01,54,13.90
2012,08,10,01,55,13.90
2012,08,10,01,56,13.90
2012,08,10,01,57,13.90
2012,08,10,01,58,13.90
2012,08,10,01,59,13.90
2012,08,10,02,00,13.90
2012,08,10,02,01,13.80
2012,08,10,02,02,13.80
2012,08,10,02,03,13.80
2012,08,10,02,04,13.80
2012,08,10,02,05,13.80
2012,08,10,02,06,13.70
2012,08,10,02,07,13.70
2012,08,10,02,08,13.70
2012,08,10,02,09,13.60
2012,08,10,02,10,13.60
2012,08,10,02,11,13.60
2012,08,10,02,12,13.60
2012,08,10,02,13,13.50
2012,08,10,02,14,13.50
2012,08,10,02,15,13.40
2012,08,10,02,16,13.40
2012,08,10,02,17,13.40
2012,08,10,02,18,13.40
2012,08,10,02,19,13.30
2012,08,10,02,20,13.30
2012,08,10,02,21,13.30
2012,08,10,02,22,13.30
2012,08,10,02,23,13.30
2012,08,10,02,24,13.30
2012,08,10,02,25,13.20
2012,08,10,02,26,13.20
2012,08,10,02,27,13.20
2012,08,10,02,28,13.20
2012,08,10,02,29,13.20
2012,08,10,02,30,13.20
2012,08,10,02,31,13.20
2012,08,10,02,32,13.20
2012,08,10,02,33,13.20
2012,08,10,02,34,13.20
2012,08,10,02,35,13.10
2012,08,10,02,36,13.10
2012,08,10,02,37,13.10
2012,08,10,02,38,13.10
2012,08,10,02,39,13.10
2012,08,10,02,40,13.00
2012,08,10,02,41,13.00
2012,08,10,02,42,13.00
2012,08,10,02,43,13.00
2012,08,10,02,44,12.90
2012,08,10,02,45,12.90
2012,08,10,02,46,12.90
2012,08,10,02,47,12.90
2012,08,10,02,48,12.90
2012,08,10,02,49,12.90
2012,08,10,02,50,12.90
2012,08,10,02,51,12.90
2012,08,10,02,52,12.90
2012,08,10,02,53,12.80
2012,08,10,02,54,12.80
2012,08,10,02,55,12.80
2012,08,10,02,56,12.80
2012,08,10,02,57,12.80
2012,08,10,02,58,12.80
2012,08,10,02,59,12.80
2012,08,10,03,00,12.80
2012,08,10,03,01,12.80
2012,08,10,03,02,12.70
2012,08,10,03,03,12.70
2012,08,10,03,04,12.70
2012,08,10,03,05,12.70
2012,08,10,03,06,12.70
2012,08,10,03,07,12.70
2012,08,10,03,08,12.70
2012,08,10,03,09,12.70
2012,08,10,03,10,12.70
2012,08,10,03,11,12.60
2012,08,10,03,12,12.60
2012,08,10,03,13,12.60
2012,08,10,03,14,12.60
2012,08,10,03,15,12.60
2012,08,10,03,16,12.60
2012,08,10,03,17,12.60
2012,08,10,03,18,12.50
2012,08,10,03,19,12.50
2012,08,10,03,20,12.50
2012,08,10,03,21,12.50
2012,08,10,03,22,12.50
2012,08,10,03,23,12.50
2012,08,10,03,24,12.40
2012,08,10,03,25,12.40
2012,08,10,03,26,12.40
2012,08,10,03,27,12.40
2012,08,10,03,28,12.40
2012,08,10,03,29,12.40
2012,08,10,03,30,12.40
2012,08,10,03,31,12.40
2012,08,10,03,32,12.30
2012,08,10,03,33,12.30
2012,08,10,03,34,12.30
2012,08,10,03,35,12.30
2012,08,10,03,36,12.30
2012,08,10,03,37,12.30
2012,08,10,03,38,12.30
2012,08,10,03,39,12.30
2012,08,10,03,40,12.30
2012,08,10,03,41,12.30
2012,08,10,03,42,12.30
2012,08,10,03,43,12.30
2012,08,10,03,44,12.30
2012,08,10,03,45,12.30
2012,08,10,03,46,12.30
2012,08,10,03,47,12.20
2012,08,10,03,48,12.20
2012,08,10,03,49,12.20
2012,08,10,03,50,12.20
2012,08,10,03,51,12.20
2012,08,10,03,52,12.20
2012,08,10,03,53,12.20
2012,08,10,03,54,12.20
2012,08,10,03,55,12.20
2012,08,10,03,56,12.20
2012,08,10,03,57,12.20
2012,08,10,03,58,12.20
2012,08,10,03,59,12.10
2012,08,10,04,00,12.10
2012,08,10,04,01,12.10
2012,08,10,04,02,12.10
2012,08,10,04,03,12.10
2012,08,10,04,04,12.10
2012,08,10,04,05,12.10
2012,08,10,04,06,12.10
2012,08,10,04,07,12.10
2012,08,10,04,08,12.10
2012,08,10,04,09,12.10
2012,08,10,04,10,12.00
2012,08,10,04,11,12.00
2012,08,10,04,12,12.00
2012,08,10,04,13,12.00
2012,08,10,04,14,12.00
2012,08,10,04,15,12.00
2012,08,10,04,16,12.00
2012,08,10,04,17,11.90
2012,08,10,04,18,11.90
2012,08,10,04,19,11.90
2012,08,10,04,20,11.90
2012,08,10,04,21,11.90
2012,08,10,04,22,11.90
2012,08,10,04,23,11.90
2012,08,10,04,24,11.80
2012,08,10,04,25,11.80
2012,08,10,04,26,11.80
2012,08,10,04,27,11.80
2012,08,10,04,28,11.80
2012,08,10,04,29,11.80
2012,08,10,04,30,11.80
2012,08,10,04,31,11.80
2012,08,10,04,32,11.70
2012,08,10,04,33,11.70
2012,08,10,04,34,11.70
2012,08,10,04,35,11.70
2012,08,10,04,36,11.70
2012,08,10,04,37,11.70
2012,08,10,04,38,11.70
2012,08,10,04,39,11.70
2012,08,10,04,40,11.70
2012,08,10,04,41,11.70
2012,08,10,04,42,11.60
2012,08,10,04,43,11.60
2012,08,10,04,44,11.60
2012,08,10,04,45,11.60
2012,08,10,04,46,11.60
2012,08,10,04,47,11.60
2012,08,10,04,48,11.60
2012,08,10,04,49,11.60
2012,08,10,04,50,11.60
2012,08,10,04,51,11.60
2012,08,10,04,52,11.60
2012,08,10,04,53,11.60
2012,08,10,04,54,11.60
2012,08,10,04,55,11.60
2012,08,10,04,56,11.60
2012,08,10,04,57,11.60
2012,08,10,04,58,11.60
2012,08,10,04,59,11.50
2012,08,10,05,00,11.50
2012,08,10,05,01,11.50
2012,08,10,05,02,11.50
2012,08,10,05,03,11.50
2012,08,10,05,04,11.50
2012,08,10,05,05,11.50
2012,08,10,05,06,11.50
2012,08,10,05,07,11.50
2012,08,10,05,08,11.50
2012,08,10,05,09,11.40
2012,08,10,05,10,11.40
2012,08,10,05,11,11.40
2012,08,10,05,12,11.40
2012,08,10,05,13,11.40
2012,08,10,05,14,11.40
2012,08,10,05,15,11.40
2012,08,10,05,16,11.40
2012,08,10,05,17,11.40
2012,08,10,05,18,11.30
2012,08,10,05,19,11.30
2012,08,10,05,20,11.30
2012,08,10,05,21,11.30
2012,08,10,05,22,11.30
2012,08,10,05,23,11.30
2012,08,10,05,24,11.30
2012,08,10,05,25,11.30
2012,08,10,05,26,11.30
2012,08,10,05,27,11.30
2012,08,10,05,28,11.30
2012,08,10,05,29,11.30
2012,08,10,05,30,11.30
2012,08,10,05,31,11.30
2012,08,10,05,32,11.20
2012,08,10,05,33,11.20
2012,08,10,05,34,11.20
2012,08,10,05,35,11.20
2012,08,10,05,36,11.20
2012,08,10,05,37,11.20
2012,08,10,05,38,11.20
2012,08,10,05,39,11.20
2012,08,10,05,40,11.20
2012,08,10,05,41,11.10
2012,08,10,05,42,11.10
2012,08,10,05,43,11.10
2012,08,10,05,44,11.10
2012,08,10,05,45,11.10
2012,08,10,05,46,11.10
2012,08,10,05,47,11.10
2012,08,10,05,48,11.10
2012,08,10,05,49,11.10
2012,08,10,05,50,11.10
2012,08,10,05,51,11.10
2012,08,10,05,52,11.10
2012,08,10,05,53,11.10
2012,08,10,05,54,11.10
2012,08,10,05,55,11.10
2012,08,10,05,56,11.00
2012,08,10,05,57,11.00
2012,08,10,05,58,11.00
2012,08,10,05,59,11.00
2012,08,10,06,00,11.00
2012,08,10,06,01,11.00
2012,08,10,06,02,10.90
2012,08,10,06,03,10.90
2012,08,10,06,04,10.90
2012,08,10,06,05,10.90
2012,08,10,06,06,10.90
2012,08,10,06,07,10.90
2012,08,10,06,08,10.90
2012,08,10,06,09,10.90
2012,08,10,06,10,10.90
2012,08,10,06,11,10.90
2012,08,10,06,12,10.90
2012,08,10,06,13,10.90
2012,08,10,06,14,10.90
2012,08,10,06,15,10.90
2012,08,10,06,16,10.90
2012,08,10,06,17,10.80
2012,08,10,06,18,10.80
2012,08,10,06,19,10.80
2012,08,10,06,20,10.80
2012,08,10,06,21,10.80
2012,08,10,06,22,10.80
2012,08,10,06,23,10.80
2012,08,10,06,24,10.80
2012,08,10,06,25,10.80
2012,08,10,06,26,10.80
2012,08,10,06,27,10.80
2012,08,10,06,28,10.80
2012,08,10,06,29,10.80
2012,08,10,06,30,10.80
2012,08,10,06,31,10.80
2012,08,10,06,32,10.80
2012,08,10,06,33,10.80
2012,08,10,06,34,10.80
2012,08,10,06,35,10.80
2012,08,10,06,36,10.80
2012,08,10,06,37,10.80
2012,08,10,06,38,10.80
2012,08,10,06,39,10.80
2012,08,10,06,40,10.80
2012,08,10,06,41,10.80
2012,08,10,06,42,10.80
2012,08,10,06,43,10.80
2012,08,10,06,44,10.80
2012,08,10,06,45,10.80
2012,08,10,06,46,10.80
2012,08,10,06,47,10.90
2012,08,10,06,48,10.90
2012,08,10,06,49,10.90
2012,08,10,06,50,10.90
2012,08,10,06,51,10.90
2012,08,10,06,52,10.90
2012,08,10,06,53,10.90
2012,08,10,06,54,10.90
2012,08,10,06,55,10.90
2012,08,10,06,56,10.90
2012,08,10,06,57,10.90
2012,08,10,06,58,10.90
2012,08,10,06,59,10.90
2012,08,10,07,00,10.90
2012,08,10,07,01,10.90
2012,08,10,07,02,10.90
2012,08,10,07,03,10.90
2012,08,10,07,04,10.90
2012,08,10,07,05,10.90
2012,08,10,07,06,11.00
2012,08,10,07,07,11.00
2012,08,10,07,08,11.00
2012,08,10,07,09,11.00
2012,08,10,07,10,11.00
2012,08,10,07,11,11.00
2012,08,10,07,12,11.00
2012,08,10,07,13,11.10
2012,08,10,07,14,11.10
2012,08,10,07,15,11.10
2012,08,10,07,16,11.10
2012,08,10,07,17,11.10
2012,08,10,07,18,11.10
2012,08,10,07,19,11.10
2012,08,10,07,20,11.10
2012,08,10,07,21,11.10
2012,08,10,07,22,11.10
2012,08,10,07,23,11.20
2012,08,10,07,24,11.20
2012,08,10,07,25,11.20
2012,08,10,07,26,11.20
2012,08,10,07,27,11.20
2012,08,10,07,28,11.20
2012,08,10,07,29,11.20
2012,08,10,07,30,11.20
2012,08,10,07,31,11.30
2012,08,10,07,32,11.30
2012,08,10,07,33,11.30
2012,08,10,07,34,11.40
2012,08,10,07,35,11.40
2012,08,10,07,36,11.40
2012,08,10,07,37,11.50
2012,08,10,07,38,11.50
2012,08,10,07,39,11.50
2012,08,10,07,40,11.60
2012,08,10,07,41,11.60
2012,08,10,07,42,11.60
2012,08,10,07,43,11.60
2012,08,10,07,44,11.70
2012,08,10,07,45,11.70
2012,08,10,07,46,11.70
2012,08,10,07,47,11.80
2012,08,10,07,48,11.80
2012,08,10,07,49,11.80
2012,08,10,07,50,11.90
2012,08,10,07,51,11.90
2012,08,10,07,52,12.00
2012,08,10,07,53,12.00
2012,08,10,07,54,12.10
2012,08,10,07,55,12.10
2012,08,10,07,56,12.20
2012,08,10,07,57,12.20
2012,08,10,07,58,12.20
2012,08,10,07,59,12.30
2012,08,10,08,00,12.30
2012,08,10,08,01,12.30
2012,08,10,08,02,12.40
2012,08,10,08,03,12.40
2012,08,10,08,04,12.40
2012,08,10,08,05,12.40
2012,08,10,08,06,12.50
2012,08,10,08,07,12.50
2012,08,10,08,08,12.60
2012,08,10,08,09,12.60
2012,08,10,08,10,12.60
2012,08,10,08,11,12.70
2012,08,10,08,12,12.70
2012,08,10,08,13,12.70
2012,08,10,08,14,12.80
2012,08,10,08,15,12.80
2012,08,10,08,16,12.90
2012,08,10,08,17,12.90
2012,08,10,08,18,12.90
2012,08,10,08,19,13.00
2012,08,10,08,20,13.00
2012,08,10,08,21,13.10
2012,08,10,08,22,13.20
2012,08,10,08,23,13.20
2012,08,10,08,24,13.30
2012,08,10,08,25,13.30
2012,08,10,08,26,13.40
2012,08,10,08,27,13.40
2012,08,10,08,28,13.50
2012,08,10,08,29,13.60
2012,08,10,08,30,13.60
2012,08,10,08,31,13.70
2012,08,10,08,32,13.70
2012,08,10,08,33,13.80
2012,08,10,08,34,13.80
2012,08,10,08,35,13.90
2012,08,10,08,36,13.90
2012,08,10,08,37,14.00
2012,08,10,08,38,14.00
2012,08,10,08,39,14.10
2012,08,10,08,40,14.20
2012,08,10,08,41,14.20
2012,08,10,08,42,14.20
2012,08,10,08,43,14.30
2012,08,10,08,44,14.30
2012,08,10,08,45,14.40
2012,08,10,08,46,14.40
2012,08,10,08,47,14.50
2012,08,10,08,48,14.50
2012,08,10,08,49,14.60
2012,08,10,08,50,14.60
2012,08,10,08,51,14.60
2012,08,10,08,52,14.70
2012,08,10,08,53,14.70
2012,08,10,08,54,14.80
2012,08,10,08,55,14.90
2012,08,10,08,56,15.00
2012,08,10,08,57,15.00
2012,08,10,08,58,15.00
2012,08,10,08,59,15.00
2012,08,10,09,00,15.00
2012,08,10,09,01,15.00
2012,08,10,09,02,15.10
2012,08,10,09,03,15.20
2012,08,10,09,04,15.30
2012,08,10,09,05,15.30
2012,08,10,09,06,15.30
2012,08,10,09,07,15.40
2012,08,10,09,08,15.40
2012,08,10,09,09,15.50
2012,08,10,09,10,15.60
2012,08,10,09,11,15.60
2012,08,10,09,12,15.70
2012,08,10,09,13,15.70
2012,08,10,09,14,15.80
2012,08,10,09,15,15.80
2012,08,10,09,16,15.90
2012,08,10,09,17,16.00
2012,08,10,09,18,16.00
2012,08,10,09,19,16.10
2012,08,10,09,20,16.10
2012,08,10,09,21,16.20
2012,08,10,09,22,16.30
2012,08,10,09,23,16.30
2012,08,10,09,24,16.40
2012,08,10,09,25,16.50
2012,08,10,09,26,16.50
2012,08,10,09,27,16.60
2012,08,10,09,28,16.60
2012,08,10,09,29,16.60
2012,08,10,09,30,16.70
2012,08,10,09,31,16.70
2012,08,10,09,32,16.80
2012,08,10,09,33,16.80
2012,08,10,09,34,16.80
2012,08,10,09,35,16.80
2012,08,10,09,36,16.80
2012,08,10,09,37,16.90
2012,08,10,09,38,16.90
2012,08,10,09,39,16.90
2012,08,10,09,40,17.00
2012,08,10,09,41,17.00
2012,08,10,09,42,17.00
2012,08,10,09,43,17.10
2012,08,10,09,44,17.10
2012,08,10,09,45,17.20
2012,08,10,09,46,17.20
2012,08,10,09,47,17.30
2012,08,10,09,48,17.30
2012,08,10,09,49,17.40
2012,08,10,09,50,17.50
2012,08,10,09,51,17.50
2012,08,10,09,52,17.60
2012,08,10,09,53,17.60
2012,08,10,09,54,17.70
2012,08,10,09,55,17.80
2012,08,10,09,56,17.80
2012,08,10,09,57,17.90
2012,08,10,09,58,17.80
2012,08,10,09,59,17.80
2012,08,10,10,00,17.80
2012,08,10,10,01,17.80
2012,08,10,10,02,17.80
2012,08,10,10,03,17.90
2012,08,10,10,04,17.90
2012,08,10,10,05,18.00
2012,08,10,10,06,18.10
2012,08,10,10,07,18.20
2012,08,10,10,08,18.30
2012,08,10,10,09,18.40
2012,08,10,10,10,18.50
2012,08,10,10,11,18.50
2012,08,10,10,12,18.60
2012,08,10,10,13,18.60
2012,08,10,10,14,18.70
2012,08,10,10,15,18.70
2012,08,10,10,16,18.70
2012,08,10,10,17,18.80
2012,08,10,10,18,18.80
2012,08,10,10,19,18.90
2012,08,10,10,20,18.90
2012,08,10,10,21,18.90
2012,08,10,10,22,19.00
2012,08,10,10,23,19.10
2012,08,10,10,24,19.10
2012,08,10,10,25,19.10
2012,08,10,10,26,19.20
2012,08,10,10,27,19.20
2012,08,10,10,28,19.20
2012,08,10,10,29,19.20
2012,08,10,10,30,19.30
2012,08,10,10,31,19.30
2012,08,10,10,32,19.40
2012,08,10,10,33,19.60
2012,08,10,10,34,19.70
2012,08,10,10,35,19.90
2012,08,10,10,36,20.00
2012,08,10,10,37,20.00
2012,08,10,10,38,20.10
2012,08,10,10,39,20.10
2012,08,10,10,40,20.10
2012,08,10,10,41,20.10
2012,08,10,10,42,20.10
2012,08,10,10,43,20.10
2012,08,10,10,44,20.10
2012,08,10,10,45,20.10
2012,08,10,10,46,20.10
2012,08,10,10,47,20.00
2012,08,10,10,48,20.00
2012,08,10,10,49,20.00
2012,08,10,10,50,20.10
2012,08,10,10,51,20.20
2012,08,10,10,52,20.20
2012,08,10,10,53,20.30
2012,08,10,10,54,20.40
2012,08,10,10,55,20.50
2012,08,10,10,56,20.50
2012,08,10,10,57,20.60
2012,08,10,10,58,20.60
2012,08,10,10,59,20.70
2012,08,10,11,00,20.80
2012,08,10,11,01,20.80
2012,08,10,11,02,20.80
2012,08,10,11,03,20.80
2012,08,10,11,04,20.90
2012,08,10,11,05,20.90
2012,08,10,11,06,20.80
2012,08,10,11,07,20.80
2012,08,10,11,08,20.70
2012,08,10,11,09,20.80
2012,08,10,11,10,20.80
2012,08,10,11,11,21.00
2012,08,10,11,12,21.00
2012,08,10,11,13,21.00
2012,08,10,11,14,20.90
2012,08,10,11,15,20.90
2012,08,10,11,16,20.90
2012,08,10,11,17,20.90
2012,08,10,11,18,20.90
2012,08,10,11,19,21.00
2012,08,10,11,20,21.00
2012,08,10,11,21,21.00
2012,08,10,11,22,21.00
2012,08,10,11,23,20.90
2012,08,10,11,24,20.90
2012,08,10,11,25,21.00
2012,08,10,11,26,21.10
2012,08,10,11,27,21.10
2012,08,10,11,28,21.10
2012,08,10,11,29,21.10
2012,08,10,11,30,21.20
2012,08,10,11,31,21.30
2012,08,10,11,32,21.30
2012,08,10,11,33,21.40
2012,08,10,11,34,21.40
2012,08,10,11,35,21.50
2012,08,10,11,36,21.50
2012,08,10,11,37,21.60
2012,08,10,11,38,21.70
2012,08,10,11,39,21.80
2012,08,10,11,40,21.80
2012,08,10,11,41,21.90
2012,08,10,11,42,21.90
2012,08,10,11,43,21.90
2012,08,10,11,44,21.90
2012,08,10,11,45,22.00
2012,08,10,11,46,22.00
2012,08,10,11,47,22.00
2012,08,10,11,48,22.10
2012,08,10,11,49,22.20
2012,08,10,11,50,22.30
2012,08,10,11,51,22.30
2012,08,10,11,52,22.40
2012,08,10,11,53,22.40
2012,08,10,11,54,22.50
2012,08,10,11,55,22.50
2012,08,10,11,56,22.60
2012,08,10,11,57,22.60
2012,08,10,11,58,22.70
2012,08,10,11,59,22.70
2012,08,10,12,00,22.70
2012,08,10,12,01,22.70
2012,08,10,12,02,22.70
2012,08,10,12,03,22.60
2012,08,10,12,04,22.60
2012,08,10,12,05,22.60
2012,08,10,12,06,22.70
2012,08,10,12,07,22.70
2012,08,10,12,08,22.80
2012,08,10,12,09,22.90
2012,08,10,12,10,23.10
2012,08,10,12,11,23.20
2012,08,10,12,12,23.30
2012,08,10,12,13,23.40
2012,08,10,12,14,23.40
2012,08,10,12,15,23.40
2012,08,10,12,16,23.40
2012,08,10,12,17,23.40
2012,08,10,12,18,23.50
2012,08,10,12,19,23.50
2012,08,10,12,20,23.50
2012,08,10,12,21,23.60
2012,08,10,12,22,23.60
2012,08,10,12,23,23.60
2012,08,10,12,24,23.60
2012,08,10,12,25,23.60
2012,08,10,12,26,23.60
2012,08,10,12,27,23.60
2012,08,10,12,28,23.70
2012,08,10,12,29,23.80
2012,08,10,12,30,23.90
2012,08,10,12,31,24.00
2012,08,10,12,32,24.10
2012,08,10,12,33,24.20
2012,08,10,12,34,24.30
2012,08,10,12,35,24.30
2012,08,10,12,36,24.40
2012,08,10,12,37,24.40
2012,08,10,12,38,24.40
2012,08,10,12,39,24.20
2012,08,10,12,40,24.20
2012,08,10,12,41,24.10
2012,08,10,12,42,24.10
2012,08,10,12,43,24.20
2012,08,10,12,44,24.20
2012,08,10,12,45,24.30
2012,08,10,12,46,24.40
2012,08,10,12,47,24.50
2012,08,10,12,48,24.60
2012,08,10,12,49,24.80
2012,08,10,12,50,24.90
2012,08,10,12,51,24.80
2012,08,10,12,52,24.80
2012,08,10,12,53,24.80
2012,08,10,12,54,24.80
2012,08,10,12,55,24.80
2012,08,10,12,56,24.80
2012,08,10,12,57,24.80
2012,08,10,12,58,24.80
2012,08,10,12,59,24.80
2012,08,10,13,00,24.80
2012,08,10,13,01,24.80
2012,08,10,13,02,24.80
2012,08,10,13,03,24.70
2012,08,10,13,04,24.70
2012,08,10,13,05,24.70
2012,08,10,13,06,24.70
2012,08,10,13,07,24.70
2012,08,10,13,08,24.70
2012,08,10,13,09,24.70
2012,08,10,13,10,24.60
2012,08,10,13,11,24.60
2012,08,10,13,12,24.70
2012,08,10,13,13,24.80
2012,08,10,13,14,24.90
2012,08,10,13,15,25.10
2012,08,10,13,16,25.20
2012,08,10,13,17,25.40
2012,08,10,13,18,25.60
2012,08,10,13,19,25.70
2012,08,10,13,20,25.90
2012,08,10,13,21,26.00
2012,08,10,13,22,26.00
2012,08,10,13,23,25.90
2012,08,10,13,24,25.90
2012,08,10,13,25,25.70
2012,08,10,13,26,25.60
2012,08,10,13,27,25.50
2012,08,10,13,28,25.40
2012,08,10,13,29,25.40
2012,08,10,13,30,25.50
2012,08,10,13,31,25.60
2012,08,10,13,32,25.70
2012,08,10,13,33,25.80
2012,08,10,13,34,25.90
2012,08,10,13,35,25.90
2012,08,10,13,36,26.00
2012,08,10,13,37,26.10
2012,08,10,13,38,26.20
2012,08,10,13,39,26.30
2012,08,10,13,40,26.30
2012,08,10,13,41,26.40
2012,08,10,13,42,26.40
2012,08,10,13,43,26.30
2012,08,10,13,44,26.20
2012,08,10,13,45,26.20
2012,08,10,13,46,26.00
2012,08,10,13,47,26.00
2012,08,10,13,48,25.90
2012,08,10,13,49,25.90
2012,08,10,13,50,25.90
2012,08,10,13,51,25.90
2012,08,10,13,52,25.90
2012,08,10,13,53,26.00
2012,08,10,13,54,26.10
2012,08,10,13,55,26.20
2012,08,10,13,56,26.20
2012,08,10,13,57,26.30
2012,08,10,13,58,26.30
2012,08,10,13,59,26.30
2012,08,10,14,00,26.30
2012,08,10,14,01,26.30
2012,08,10,14,02,26.40
2012,08,10,14,03,26.40
2012,08,10,14,04,26.30
2012,08,10,14,05,26.10
2012,08,10,14,06,26.00
2012,08,10,14,07,25.90
2012,08,10,14,08,25.90
2012,08,10,14,09,25.90
2012,08,10,14,10,25.90
2012,08,10,14,11,25.90
2012,08,10,14,12,26.00
2012,08,10,14,13,26.10
2012,08,10,14,14,26.10
2012,08,10,14,15,26.20
2012,08,10,14,16,26.20
2012,08,10,14,17,26.30
2012,08,10,14,18,26.30
2012,08,10,14,19,26.40
2012,08,10,14,20,26.40
2012,08,10,14,21,26.50
2012,08,10,14,22,26.50
2012,08,10,14,23,26.70
2012,08,10,14,24,26.80
2012,08,10,14,25,26.90
2012,08,10,14,26,27.10
2012,08,10,14,27,27.20
2012,08,10,14,28,27.30
2012,08,10,14,29,27.40
2012,08,10,14,30,27.40
2012,08,10,14,31,27.40
2012,08,10,14,32,27.40
2012,08,10,14,33,27.30
2012,08,10,14,34,27.30
2012,08,10,14,35,27.30
2012,08,10,14,36,27.30
2012,08,10,14,37,27.30
2012,08,10,14,38,27.30
2012,08,10,14,39,27.30
2012,08,10,14,40,27.30
2012,08,10,14,41,27.20
2012,08,10,14,42,27.10
2012,08,10,14,43,27.10
2012,08,10,14,44,27.10
2012,08,10,14,45,27.10
2012,08,10,14,46,27.10
2012,08,10,14,47,27.00
2012,08,10,14,48,27.00
2012,08,10,14,49,26.90
2012,08,10,14,50,26.90
2012,08,10,14,51,26.80
2012,08,10,14,52,26.80
2012,08,10,14,53,26.80
2012,08,10,14,54,26.80
2012,08,10,14,55,26.90
2012,08,10,14,56,26.90
2012,08,10,14,57,27.00
2012,08,10,14,58,27.00
2012,08,10,14,59,27.00
2012,08,10,15,00,27.00
2012,08,10,15,01,26.90
2012,08,10,15,02,26.90
2012,08,10,15,03,26.80
2012,08,10,15,04,26.80
2012,08,10,15,05,26.80
2012,08,10,15,06,26.70
2012,08,10,15,07,26.80
2012,08,10,15,08,26.90
2012,08,10,15,09,27.10
2012,08,10,15,10,27.20
2012,08,10,15,11,27.40
2012,08,10,15,12,27.50
2012,08,10,15,13,27.60
2012,08,10,15,14,27.70
2012,08,10,15,15,27.80
2012,08,10,15,16,27.80
2012,08,10,15,17,27.80
2012,08,10,15,18,27.90
2012,08,10,15,19,28.00
2012,08,10,15,20,28.00
2012,08,10,15,21,27.90
2012,08,10,15,22,27.90
2012,08,10,15,23,27.90
2012,08,10,15,24,27.80
2012,08,10,15,25,27.60
2012,08,10,15,26,27.50
2012,08,10,15,27,27.30
2012,08,10,15,28,27.30
2012,08,10,15,29,27.30
2012,08,10,15,30,27.30
2012,08,10,15,31,27.30
2012,08,10,15,32,27.30
2012,08,10,15,33,27.30
2012,08,10,15,34,27.20
2012,08,10,15,35,27.20
2012,08,10,15,36,27.20
2012,08,10,15,37,27.20
2012,08,10,15,38,27.20
2012,08,10,15,39,27.30
2012,08,10,15,40,27.30
2012,08,10,15,41,27.30
2012,08,10,15,42,27.40
2012,08,10,15,43,27.40
2012,08,10,15,44,27.50
2012,08,10,15,45,27.50
2012,08,10,15,46,27.50
2012,08,10,15,47,27.40
2012,08,10,15,48,27.50
2012,08,10,15,49,27.50
2012,08,10,15,50,27.60
2012,08,10,15,51,27.70
2012,08,10,15,52,27.80
2012,08,10,15,53,27.90
2012,08,10,15,54,28.00
2012,08,10,15,55,28.10
2012,08,10,15,56,28.00
2012,08,10,15,57,28.00
2012,08,10,15,58,27.90
2012,08,10,15,59,27.80
2012,08,10,16,00,27.80
2012,08,10,16,01,27.90
2012,08,10,16,02,28.00
2012,08,10,16,03,28.00
2012,08,10,16,04,28.00
2012,08,10,16,05,28.00
2012,08,10,16,06,28.00
2012,08,10,16,07,27.90
2012,08,10,16,08,27.90
2012,08,10,16,09,27.90
2012,08,10,16,10,28.00
2012,08,10,16,11,28.00
2012,08,10,16,12,28.00
2012,08,10,16,13,27.90
2012,08,10,16,14,27.90
2012,08,10,16,15,27.80
2012,08,10,16,16,27.70
2012,08,10,16,17,27.60
2012,08,10,16,18,27.50
2012,08,10,16,19,27.50
2012,08,10,16,20,27.40
2012,08,10,16,21,27.40
2012,08,10,16,22,27.30
2012,08,10,16,23,27.30
2012,08,10,16,24,27.30
2012,08,10,16,25,27.30
2012,08,10,16,26,27.30
2012,08,10,16,27,27.40
2012,08,10,16,28,27.40
2012,08,10,16,29,27.50
2012,08,10,16,30,27.50
2012,08,10,16,31,27.60
2012,08,10,16,32,27.60
2012,08,10,16,33,27.70
2012,08,10,16,34,27.70
2012,08,10,16,35,27.60
2012,08,10,16,36,27.50
2012,08,10,16,37,27.40
2012,08,10,16,38,27.40
2012,08,10,16,39,27.40
2012,08,10,16,40,27.40
2012,08,10,16,41,27.40
2012,08,10,16,42,27.40
2012,08,10,16,43,27.30
2012,08,10,16,44,27.30
2012,08,10,16,45,27.10
2012,08,10,16,46,27.00
2012,08,10,16,47,26.90
2012,08,10,16,48,26.70
2012,08,10,16,49,26.70
2012,08,10,16,50,26.60
2012,08,10,16,51,26.50
2012,08,10,16,52,26.50
2012,08,10,16,53,26.40
2012,08,10,16,54,26.30
2012,08,10,16,55,26.20
2012,08,10,16,56,26.00
2012,08,10,16,57,25.90
2012,08,10,16,58,25.90
2012,08,10,16,59,25.80
2012,08,10,17,00,25.80
2012,08,10,17,01,25.80
2012,08,10,17,02,25.80
2012,08,10,17,03,25.80
2012,08,10,17,04,25.80
2012,08,10,17,05,25.80
2012,08,10,17,06,25.80
2012,08,10,17,07,25.80
2012,08,10,17,08,25.80
2012,08,10,17,09,25.80
2012,08,10,17,10,25.80
2012,08,10,17,11,25.70
2012,08,10,17,12,25.60
2012,08,10,17,13,25.50
2012,08,10,17,14,25.40
2012,08,10,17,15,25.30
2012,08,10,17,16,25.30
2012,08,10,17,17,25.30
2012,08,10,17,18,25.20
2012,08,10,17,19,25.20